When you browse on this site, cookies collect data to enhance your experience and personalize the content and advertising you see.
Visit our Privacy Policy to learn more. By continuing to use the site, you agree to this use of cookies and data.
  • In Hungary
  • List of Countries
  • For 7 days
  • Water Temperature
  • Satellite Maps
  • Weather Map
  • News
  • Weather Widgets
  • user-avatar
    Login

    Hourly Weather Bucov

    Today, 24 March, Sunday

    Time Temperature Precipitation Wind Pressure Humidity
    00:00 +8°C° 0 mm 2 mps 754 mmHg 43%
    01:00 +8°C° 0 mm 1 mps 754 mmHg 45%
    02:00 +7°C° 0 mm 1 mps 754 mmHg 48%
    03:00 +6°C° 0 mm 1 mps 754 mmHg 49%
    04:00 +6°C° 0 mm 1 mps 754 mmHg 50%
    05:00 +6°C° 0 mm 1 mps 754 mmHg 51%
    06:00 +7°C° 0 mm 1 mps 754 mmHg 49%
    07:00 +7°C° 0 mm 1 mps 754 mmHg 48%
    08:00 +8°C° 0 mm 1 mps 754 mmHg 46%
    09:00 +9°C° 0 mm 2 mps 753 mmHg 41%
    10:00 +11°C° 0 mm 3 mps 753 mmHg 37%
    11:00 +12°C° 0 mm 4 mps 753 mmHg 33%
    12:00 +14°C° 0 mm 4 mps 752 mmHg 32%
    13:00 +15°C° 0 mm 4 mps 752 mmHg 31%
    14:00 +17°C° 0 mm 4 mps 751 mmHg 30%
    15:00 +17°C° 0 mm 4 mps 751 mmHg 31%
    16:00 +17°C° 0 mm 4 mps 750 mmHg 32%
    17:00 +17°C° 0 mm 4 mps 750 mmHg 33%
    18:00 +14°C° 0 mm 3 mps 750 mmHg 38%
    19:00 +13°C° 0 mm 3 mps 750 mmHg 42%
    20:00 +12°C° 0 mm 2 mps 750 mmHg 47%
    21:00 +12°C° 0 mm 2 mps 750 mmHg 49%
    22:00 +11°C° 0 mm 1 mps 750 mmHg 50%
    23:00 +11°C° 0 mm 1 mps 750 mmHg 52%

    Tomorrow, 25 March, Monday

    Time Temperature Precipitation Wind Pressure Humidity
    00:00 +10°C° 0 mm 1 mps 750 mmHg 54%
    01:00 +10°C° 0 mm 1 mps 750 mmHg 55%
    02:00 +10°C° 0 mm 1 mps 749 mmHg 57%
    03:00 +9°C° 0 mm 1 mps 749 mmHg 59%
    04:00 +8°C° 0 mm 0 mps 748 mmHg 61%
    05:00 +8°C° 0 mm 0 mps 748 mmHg 63%
    06:00 +8°C° 0 mm 0 mps 747 mmHg 60%
    07:00 +10°C° 0 mm 1 mps 747 mmHg 58%
    08:00 +11°C° 0 mm 1 mps 747 mmHg 56%
    09:00 +13°C° 0 mm 2 mps 746 mmHg 50%
    10:00 +14°C° 0 mm 3 mps 746 mmHg 45%
    11:00 +17°C° 0 mm 4 mps 745 mmHg 39%
    12:00 +18°C° 0 mm 4 mps 744 mmHg 37%
    13:00 +19°C° 0 mm 4 mps 744 mmHg 35%
    14:00 +20°C° 0 mm 4 mps 743 mmHg 33%
    15:00 +20°C° 0 mm 4 mps 743 mmHg 34%
    16:00 +20°C° 0 mm 4 mps 742 mmHg 34%
    17:00 +19°C° 0 mm 4 mps 742 mmHg 35%
    18:00 +18°C° 0 mm 3 mps 742 mmHg 39%
    19:00 +16°C° 0 mm 2 mps 742 mmHg 43%
    20:00 +15°C° 0 mm 1 mps 743 mmHg 47%
    21:00 +14°C° 0 mm 1 mps 743 mmHg 51%
    22:00 +14°C° 0 mm 1 mps 743 mmHg 54%
    23:00 +13°C° 0 mm 1 mps 743 mmHg 57%

    Day after tomorrow, 26 March, Tuesday

    Time Temperature Precipitation Wind Pressure Humidity
    00:00 +13°C° 0 mm 2 mps 743 mmHg 60%
    01:00 +12°C° 0 mm 2 mps 743 mmHg 63%
    02:00 +12°C° 0 mm 2 mps 743 mmHg 66%
    03:00 +10°C° 0 mm 2 mps 744 mmHg 70%
    04:00 +10°C° 0 mm 2 mps 744 mmHg 75%
    05:00 +9°C° 0 mm 2 mps 744 mmHg 79%
    06:00 +10°C° 0 mm 2 mps 745 mmHg 74%
    07:00 +12°C° 0 mm 2 mps 745 mmHg 69%
    08:00 +12°C° 0 mm 2 mps 745 mmHg 64%
    09:00 +11°C° 0.4 mm 3 mps 746 mmHg 64%
    10:00 +11°C° 0.4 mm 3 mps 746 mmHg 65%
    11:00 +12°C° 0.4 mm 3 mps 747 mmHg 65%
    12:00 +11°C° 0.5 mm 4 mps 747 mmHg 64%
    13:00 +11°C° 0.5 mm 4 mps 748 mmHg 63%
    14:00 +11°C° 0.5 mm 4 mps 748 mmHg 63%
    15:00 +11°C° 0.4 mm 4 mps 748 mmHg 62%
    16:00 +10°C° 0.4 mm 4 mps 748 mmHg 61%
    17:00 +10°C° 0.4 mm 4 mps 749 mmHg 60%
    18:00 +9°C° 0 mm 3 mps 749 mmHg 62%
    19:00 +9°C° 0 mm 3 mps 750 mmHg 64%
    20:00 +8°C° 0 mm 2 mps 751 mmHg 66%
    21:00 +8°C° 0 mm 2 mps 751 mmHg 66%
    22:00 +8°C° 0 mm 2 mps 752 mmHg 66%
    23:00 +8°C° 0 mm 1 mps 752 mmHg 66%

    27 March, Wednesday

    Time Temperature Precipitation Wind Pressure Humidity
    00:00 +8°C° 0 mm 1 mps 752 mmHg 68%
    01:00 +7°C° 0 mm 1 mps 753 mmHg 70%
    02:00 +7°C° 0 mm 1 mps 753 mmHg 72%
    03:00 +7°C° 0 mm 1 mps 753 mmHg 71%
    04:00 +6°C° 0 mm 1 mps 753 mmHg 71%
    05:00 +6°C° 0 mm 1 mps 753 mmHg 71%
    06:00 +6°C° 0 mm 0 mps 754 mmHg 67%
    07:00 +6°C° 0 mm 0 mps 754 mmHg 64%
    08:00 +7°C° 0 mm 0 mps 754 mmHg 60%
    09:00 +9°C° 0 mm 1 mps 755 mmHg 55%
    10:00 +11°C° 0 mm 1 mps 755 mmHg 50%
    11:00 +12°C° 0 mm 1 mps 755 mmHg 44%
    12:00 +13°C° 0 mm 1 mps 755 mmHg 42%
    13:00 +13°C° 0 mm 1 mps 754 mmHg 39%
    14:00 +14°C° 0 mm 2 mps 754 mmHg 36%
    15:00 +13°C° 0 mm 2 mps 754 mmHg 39%
    16:00 +13°C° 0 mm 2 mps 754 mmHg 42%
    17:00 +11°C° 0 mm 3 mps 754 mmHg 45%
    18:00 +10°C° 0.3 mm 3 mps 755 mmHg 50%
    19:00 +8°C° 0.3 mm 4 mps 756 mmHg 54%
    20:00 +7°C° 0.3 mm 5 mps 756 mmHg 58%
    21:00 +6°C° 0.4 mm 5 mps 757 mmHg 56%
    22:00 +6°C° 0.4 mm 5 mps 757 mmHg 54%
    23:00 +6°C° 0.4 mm 5 mps 758 mmHg 52%

    28 March, Thursday

    Time Temperature Precipitation Wind Pressure Humidity
    00:00 +5°C° 0.1 mm 4 mps 758 mmHg 51%
    01:00 +5°C° 0.1 mm 4 mps 758 mmHg 49%
    02:00 +5°C° 0.1 mm 3 mps 758 mmHg 47%
    03:00 +4°C° 0 mm 3 mps 759 mmHg 48%
    04:00 +4°C° 0 mm 3 mps 759 mmHg 49%
    05:00 +3°C° 0 mm 3 mps 759 mmHg 49%
    06:00 +4°C° 0 mm 3 mps 759 mmHg 47%
    07:00 +4°C° 0 mm 3 mps 759 mmHg 45%
    08:00 +4°C° 0 mm 3 mps 760 mmHg 43%
    09:00 +5°C° 0 mm 3 mps 760 mmHg 41%
    10:00 +6°C° 0 mm 4 mps 759 mmHg 38%
    11:00 +8°C° 0 mm 4 mps 759 mmHg 36%
    12:00 +8°C° 0 mm 4 mps 759 mmHg 35%
    13:00 +10°C° 0 mm 3 mps 759 mmHg 34%
    14:00 +10°C° 0 mm 3 mps 758 mmHg 33%
    15:00 +10°C° 0 mm 3 mps 758 mmHg 33%
    16:00 +10°C° 0 mm 3 mps 758 mmHg 33%
    17:00 +10°C° 0 mm 3 mps 758 mmHg 33%
    18:00 +9°C° 0 mm 3 mps 758 mmHg 36%
    19:00 +7°C° 0 mm 2 mps 758 mmHg 38%
    20:00 +6°C° 0 mm 2 mps 758 mmHg 41%
    21:00 +6°C° 0 mm 2 mps 759 mmHg 42%
    22:00 +5°C° 0 mm 2 mps 759 mmHg 44%
    23:00 +5°C° 0 mm 2 mps 759 mmHg 46%

    29 March, Friday

    Time Temperature Precipitation Wind Pressure Humidity
    00:00 +5°C° 0 mm 1 mps 759 mmHg 49%
    01:00 +5°C° 0 mm 1 mps 759 mmHg 53%
    02:00 +3°C° 0 mm 0 mps 759 mmHg 56%
    03:00 +4°C° 0 mm 1 mps 759 mmHg 57%
    04:00 +4°C° 0 mm 1 mps 759 mmHg 57%
    05:00 +3°C° 0 mm 1 mps 759 mmHg 58%
    06:00 +4°C° 0 mm 1 mps 759 mmHg 55%
    07:00 +6°C° 0 mm 1 mps 759 mmHg 51%
    08:00 +7°C° 0 mm 1 mps 759 mmHg 48%
    09:00 +8°C° 0 mm 1 mps 759 mmHg 43%
    10:00 +8°C° 0 mm 2 mps 758 mmHg 38%
    11:00 +10°C° 0 mm 2 mps 758 mmHg 33%
    12:00 +12°C° 0 mm 2 mps 758 mmHg 32%
    13:00 +12°C° 0 mm 2 mps 757 mmHg 31%
    14:00 +13°C° 0 mm 2 mps 756 mmHg 30%
    15:00 +13°C° 0 mm 2 mps 756 mmHg 31%
    16:00 +13°C° 0 mm 2 mps 755 mmHg 32%
    17:00 +13°C° 0 mm 2 mps 755 mmHg 32%
    18:00 +12°C° 0 mm 2 mps 755 mmHg 37%
    19:00 +11°C° 0 mm 1 mps 755 mmHg 41%
    20:00 +8°C° 0 mm 0 mps 756 mmHg 46%
    21:00 +9°C° 0 mm 1 mps 756 mmHg 47%
    22:00 +8°C° 0 mm 1 mps 756 mmHg 49%
    23:00 +7°C° 0 mm 2 mps 756 mmHg 50%
    Show more